Aberdeen / Amory, MS

4:52 PM CST on November 15, 2019 (GMT -0600)
Aberdeen / Amory

Weather History for KM40 - October, 2019

Change the Weather History Date:

Monday, October 21, 2019

  Actual Average (WUND) Record (WUND)
Temperature  
Mean Temperature 70 °F -  
Max Temperature 73 °F - - (-1)
Min Temperature 66 °F - - (-1)
Cooling Degree Days 4    
Growing Degree Days 20 (Base 50)    
Moisture  
Dew Point 54 °F    
Average Humidity 58    
Maximum Humidity 61    
Minimum Humidity 56    
Precipitation  
Precipitation 0.00 in - - ()
Sea Level Pressure  
Sea Level Pressure 29.88 in    
Wind  
Wind Speed 6 mph ()    
Max Wind Speed 14 mph    
Max Gust Speed 20 mph    
Visibility 7.1 miles    
Events Rain    
Averages and records for this station are not official NWS values.
T = Trace of Precipitation, MM = Missing Value Source: Averaged Metar Reports

Daily Weather History Graph

Daily Weather History Graph

Search for Another Location

Airport or City:

Astronomy

Oct. 21, 2019 Rise Set
Actual Time 7:03 AM CDT 6:13 PM CDT
Civil Twilight 6:38 AM CDT 6:38 PM CDT
Nautical Twilight 6:09 AM CDT 7:07 PM CDT
Astronomical Twilight 5:40 AM CDT 7:36 PM CDT
Moon No Moon Rise 2:11 PM CDT (10/21)
Length of Visible Light 12h 00m
Length of Day
11h 09m
Waning Gibbous, 48% of the Moon is Illuminated
Oct 21
Waning Gibbous
Oct 27
New
Nov 4
First Quarter
Nov 12
Full
Nov 19
Last Quarter

Hourly Weather History & Observations

Time (CDT) Temp. Dew Point Humidity Pressure Visibility Wind Dir Wind Speed Gust Speed Precip Events Conditions
12:15 AM 71.6 °F 55.4 °F 57% 29.89 in 10.0 mi SSE 4.6 mph - N/A   Mostly Cloudy
12:35 AM 69.8 °F 53.6 °F 56% 29.88 in 10.0 mi SSE 5.8 mph - N/A   Partly Cloudy
12:55 AM 69.8 °F 53.6 °F 56% 29.88 in 10.0 mi SSE 6.9 mph - N/A   Clear
1:15 AM 69.8 °F 55.4 °F 60% 29.88 in 10.0 mi SSE 10.4 mph - N/A   Clear
1:35 AM 71.6 °F 55.4 °F 57% 29.87 in 10.0 mi SSE 11.5 mph - N/A   Clear
1:55 AM 71.6 °F 55.4 °F 57% 29.87 in 10.0 mi SSE 9.2 mph 16.1 mph N/A   Clear
2:35 AM 69.8 °F 55.4 °F 60% 29.85 in 10.0 mi SSE 5.8 mph - N/A   Clear
2:55 AM 69.8 °F 55.4 °F 60% 29.85 in 10.0 mi SSE 8.1 mph - N/A   Clear
3:15 AM 69.8 °F 55.4 °F 60% 29.84 in 10.0 mi SE 6.9 mph - N/A   Clear
3:35 AM 69.8 °F 55.4 °F 60% 29.84 in 10.0 mi SSE 6.9 mph - N/A   Clear
3:55 AM 69.8 °F 53.6 °F 56% 29.84 in 10.0 mi SSE 6.9 mph - N/A   Partly Cloudy
4:15 AM 69.8 °F 53.6 °F 56% 29.84 in 10.0 mi SSE 8.1 mph - N/A   Scattered Clouds
4:35 AM 69.8 °F 53.6 °F 56% 29.84 in 10.0 mi SSE 6.9 mph 13.8 mph N/A   Scattered Clouds
4:55 AM 69.8 °F 53.6 °F 56% 29.83 in 10.0 mi SSE 10.4 mph 16.1 mph N/A   Partly Cloudy
5:15 AM 69.8 °F 53.6 °F 56% 29.83 in 10.0 mi SSE 12.7 mph 18.4 mph N/A   Clear
5:35 AM 69.8 °F 53.6 °F 56% 29.83 in 10.0 mi South 11.5 mph 19.6 mph N/A   Clear
5:55 AM 69.8 °F 55.4 °F 60% 29.84 in 10.0 mi South 10.4 mph - N/A   Mostly Cloudy
6:15 AM 71.6 °F 55.4 °F 57% 29.84 in 10.0 mi South 10.4 mph 19.6 mph N/A   Overcast
6:35 AM 71.6 °F 55.4 °F 57% 29.84 in 10.0 mi South 12.7 mph 19.6 mph N/A   Overcast
7:15 AM 71.6 °F 57.2 °F 60% 29.84 in 10.0 mi SSE 12.7 mph - N/A   Overcast
7:35 AM 73.4 °F 57.2 °F 57% 29.83 in 10.0 mi South 9.2 mph 17.3 mph N/A   Mostly Cloudy
7:55 AM 73.4 °F 57.2 °F 57% 29.83 in 10.0 mi South 11.5 mph 17.3 mph N/A   Mostly Cloudy
8:15 AM 73.4 °F 57.2 °F 57% 29.84 in 10.0 mi South 9.2 mph 19.6 mph N/A   Overcast
8:35 AM 73.4 °F 59.0 °F 61% 29.86 in 10.0 mi South 11.5 mph - N/A   Overcast
8:55 AM 73.4 °F 57.2 °F 57% 29.88 in 10.0 mi South 9.2 mph - N/A   Overcast
9:15 AM 73.4 °F 57.2 °F 57% 29.90 in 10.0 mi South 9.2 mph - N/A   Overcast
9:35 AM 73.4 °F 57.2 °F 57% 29.90 in 3.0 mi South 6.9 mph - N/A   Light Drizzle
9:55 AM 73.4 °F 57.2 °F 57% 29.88 in 4.0 mi SSE 9.2 mph - N/A   Light Drizzle
10:15 AM 71.6 °F 57.2 °F 60% 29.88 in 4.0 mi SSE 6.9 mph - N/A   Light Drizzle
10:35 AM 73.4 °F 57.2 °F 57% 29.88 in 5.0 mi SSE 8.1 mph - N/A   Haze
10:55 AM 73.4 °F 57.2 °F 57% 29.89 in 4.0 mi South 5.8 mph - N/A   Light Drizzle
11:15 AM 73.4 °F 57.2 °F 57% 29.91 in 3.0 mi South 9.2 mph - N/A   Light Drizzle
11:35 AM 71.6 °F 55.4 °F 57% 29.93 in 2.5 mi NW 13.8 mph - N/A Rain Light Rain
11:55 AM 68.0 °F 51.8 °F 56% 29.94 in 5.0 mi NW 6.9 mph - N/A Rain Light Rain
12:35 PM 66.2 °F 51.8 °F 60% 29.93 in 3.0 mi Calm Calm - N/A Rain Light Rain
12:55 PM 66.2 °F 51.8 °F 60% 29.92 in 3.0 mi Calm Calm - N/A Rain Light Rain
1:15 PM 68.0 °F 51.8 °F 56% 29.91 in 3.0 mi Calm Calm - N/A   Light Drizzle
1:35 PM 68.0 °F 51.8 °F 56% 29.91 in 3.0 mi Calm Calm - N/A Rain Light Rain
1:55 PM 68.0 °F 51.8 °F 56% 29.90 in 2.0 mi SSE 3.5 mph - N/A Rain Light Rain
2:15 PM 68.0 °F 51.8 °F 56% 29.88 in 3.0 mi SE 4.6 mph - N/A Rain Light Rain
2:55 PM 66.2 °F 51.8 °F 60% 29.88 in 2.5 mi SE 3.5 mph - N/A Rain Light Rain
3:15 PM 66.2 °F 50.0 °F 56% 29.88 in 2.0 mi Variable 3.5 mph - N/A Rain Light Rain
3:35 PM 66.2 °F 50.0 °F 56% 29.88 in 1.5 mi SSE 6.9 mph - N/A Rain Light Rain
3:55 PM 66.2 °F 50.0 °F 56% 29.85 in 4.0 mi ESE 8.1 mph - N/A Rain Light Rain
4:15 PM 66.2 °F 51.8 °F 60% 29.86 in 5.0 mi Calm Calm - N/A Rain Light Rain
4:35 PM 66.2 °F 51.8 °F 60% 29.85 in 8.0 mi SE 5.8 mph - N/A   Light Drizzle
4:55 PM 66.2 °F 51.8 °F 60% 29.85 in 9.0 mi Calm Calm - N/A   Overcast
5:15 PM 66.2 °F 51.8 °F 60% 29.86 in 6.0 mi Calm Calm - N/A   Light Drizzle
5:35 PM 66.2 °F 51.8 °F 60% 29.85 in 1.2 mi Calm Calm - N/A   Light Drizzle
5:55 PM 66.2 °F 51.8 °F 60% 29.85 in 10.0 mi Calm Calm - N/A   Overcast
6:15 PM 66.2 °F 51.8 °F 60% 29.85 in 10.0 mi Calm Calm - N/A   Overcast
6:55 PM 66.2 °F 51.8 °F 60% 29.86 in 3.0 mi Calm Calm - N/A   Light Drizzle
7:15 PM 66.2 °F 51.8 °F 60% 29.86 in 7.0 mi Calm Calm - N/A   Overcast
7:35 PM 66.2 °F 51.8 °F 60% 29.87 in 2.5 mi Calm Calm - N/A   Haze
7:55 PM 66.2 °F 51.8 °F 60% 29.88 in 6.0 mi Calm Calm - N/A   Light Drizzle
8:15 PM 66.2 °F 51.8 °F 60% 29.89 in 4.0 mi Calm Calm - N/A   Light Drizzle
8:35 PM 66.2 °F 51.8 °F 60% 29.91 in 2.0 mi Calm Calm - N/A   Light Drizzle
8:55 PM 66.2 °F 51.8 °F 60% 29.91 in 2.0 mi Calm Calm - N/A   Light Drizzle
9:15 PM 66.2 °F 51.8 °F 60% 29.91 in 3.0 mi Calm Calm - N/A   Light Drizzle
9:35 PM 66.2 °F 51.8 °F 60% 29.92 in 10.0 mi Calm Calm - N/A   Overcast
9:55 PM 66.2 °F 51.8 °F 60% 29.92 in 10.0 mi Calm Calm - N/A   Overcast
10:15 PM 66.2 °F 51.8 °F 60% 29.92 in 10.0 mi Calm Calm - N/A   Overcast
10:35 PM 66.2 °F 51.8 °F 60% 29.93 in 10.0 mi Calm Calm - N/A   Overcast
10:55 PM 66.2 °F 51.8 °F 60% 29.92 in 10.0 mi Calm Calm - N/A   Overcast
11:15 PM 66.2 °F 51.8 °F 60% 29.92 in 10.0 mi NW 4.6 mph - N/A   Overcast
11:35 PM 66.2 °F 51.8 °F 60% 29.93 in 10.0 mi Calm Calm - N/A   Overcast
11:55 PM 66.2 °F 51.8 °F 60% 29.93 in 10.0 mi Calm Calm - N/A   Overcast